Weather in Makhrovka

Russia / Voronezh Oblast     51°33′13″N   42°23′20″E
temp.,
°C
wind,
m/s
gust,
m/s
humid.,
%
clouds,
%
prec.,
mm/h
press.,
hPa
HPBL,
m
21 january, fri
fri2100:00−16s4119762 0.0 1018170
03:00−15s5129782 0.0 1017181
06:00−14sse61398100 0.0 1015230
09:00−11sse71794100 0.1 1014427
12:00−8sse101992100 0.2 1011614
15:00−6sse91893100 1.3 1009689
18:00−4s81694100 0.4 1008670
21:00−1sw81390100 1.6 1008818
22 january, sat
sat2200:00−7ssw499394 0.0 1010122
03:00−6s3895100 0.0 1011142
06:00−8s3797100 0.0 101195
09:00−5s3796100 0.1 1012258
12:00−3ssw4892100 0.0 1013545
15:00−4ssw369279 0.1 1014177
18:00−10s359865 0.0 101655
21:00−13s3410091 0.0 101846
23 january, sun
sun2300:00−15s22100100 0.0 101915
03:00−11sse2399100 0.1 102044
06:00−11ese2398100 0.0 102239
09:00−9ene2396100 0.0 102373
12:00−5ne4692100 0.0 1023229
15:00−3ne51097100 0.4 1024438
18:00−2ene61197100 1.5 1024471
21:00−2e61195100 2.7 1025504
24 january, mon
mon2400:00−5e51188100 0.1 1027366
03:00−7ene51190100 0.1 1028314
06:00−8ene51189100 0.0 1028309
09:00−8e51288100 0.0 1030349
12:00−6e51187100 0.0 1030452
15:00−6e510885 0.0 1030377
18:00−9ene41091100 0.0 1031234
21:00−12ene4994100 0.0 1031155
25 january, tue
tue2500:00−13e4109489 0.0 1031161
03:00−12e3993100 0.0 1030162
06:00−12e3992100 0.0 1029164
09:00−12e31093100 0.0 1029188
12:00−9ese499196 0.0 1028275
15:00−8ese389395 0.0 1027259
18:00−13ese379761 0.0 102796
21:00−13se399767 0.0 1026139